Regional Weather Roundup
Issued by NWS Northern Indiana

Home | Current Version | Previous Version | Text Only | Print | Product List | Glossary Off
Versions: 1 2 3 4 5 6 7 8 9 10 11 12 13 14 15 16 17 18 19 20 21 22 23 24 25 26 27 28 29 30 31 32 33 34 35 36 37 38 39 40 41 42 43 44 45 46 47 48 49 50

000
ASUS43 KIWX 030310
RWRIWX

KIWX WEATHER ROUNDUP
NATIONAL WEATHER SERVICE NORTHERN INDIANA
1100 PM EDT MON MAY 02 2016

NOTE: "FAIR" INDICATES FEW OR NO CLOUDS BELOW 12,000 FEET WITH NO
SIGNIFICANT WEATHER AND/OR OBSTRUCTIONS TO VISIBILITY.

* THESE STATIONS ARE NOT UNDER NWS QUALITY CONTROL. THEY ALSO MAY NOT
  REPORT WEATHER SUCH AS PRECIPITATION OR FOG.

INZ001>027-030400-
NORTHERN INDIANA

CITY           SKY/WX    TMP DP  RH WIND       PRES   REMARKS
GARY*          MOCLDY    46  45  93 N5        30.03S
VALPARAISO     CLOUDY    48  39  71 N3        30.01S
MICHIGAN CITY* CLOUDY    45  41  87 CALM      30.02S
LAPORTE*       CLOUDY    49  40  71 CALM      30.01S
KNOX*          CLOUDY    46  37  71 N3        30.00S
SOUTH BEND     CLOUDY    48  41  76 N5        30.00F
GOSHEN         CLOUDY    50  47  89 CALM      29.99S
MONTICELLO*    CLOUDY    50  44  80 N6        29.99S
LOGANSPORT*    CLOUDY    50  48  93 NE3       30.01R
ROCHESTER*     CLOUDY    52  50  93 CALM      30.00S
WARSAW*        LGT RAIN  48  46  93 NE5       30.00S
ANGOLA*        CLOUDY    50  41  71 CALM      29.98S
FORT WAYNE     CLOUDY    50  47  89 NE8       29.99R
HUNTINGTON*    RAIN     N/A N/A N/A NE3       29.98S
PERU/GRISSOM   DRIZZLE   50  50 100 N8        29.98R FOG
MARION*        CLOUDY    50  49  95 NE6       29.99R FOG

$$
INZ028>050-030400-
CENTRAL INDIANA

CITY           SKY/WX    TMP DP  RH WIND       PRES   REMARKS
LAFAYETTE      CLOUDY    50  46  86 NE9       29.99S
KOKOMO*        CLOUDY    50  46  87 NE6       29.98S
MUNCIE*        CLOUDY    53  48  83 E7        29.97R
INDIANAPOLIS   CLOUDY    53  49  86 N8        29.95S

$$
MIZ043>046-050>051-056>058-064>065-071>073-077>080-030400-
SOUTHWEST LOWER MICHIGAN

CITY           SKY/WX    TMP DP  RH WIND       PRES   REMARKS
BATTLE CREEK   CLOUDY    50  43  77 CALM      30.00S
BENTON HARBOR  PTCLDY    45  38  76 CALM      30.01S
COLDWATER*     CLOUDY    49  47  92 CALM      29.99S
HILLSDALE*     CLOUDY    48  45  89 CALM      29.98S
HOLLAND        CLEAR     44  39  82 CALM      30.01S
GRAND RAPIDS   PTCLDY    48  41  76 CALM      30.00S
KALAMAZOO      CLOUDY    51  43  74 CALM      30.00S
STURGIS*       CLOUDY    48  46  91 CALM      29.99S
THREE RIVERS*  CLOUDY    50  47  88 CALM      30.00S

$$
OHZ001>008-015>018-024>025-030400-
NORTHWEST OHIO

CITY           SKY/WX    TMP DP  RH WIND       PRES   REMARKS
WAUSEON*         N/A     50 N/A N/A CALM      29.99R
DEFIANCE       CLOUDY    50  47  89 CALM      29.99R
FINDLAY        CLOUDY    49  43  80 E7        29.97S
TOLEDO EXPRESS CLOUDY    48  45  89 CALM      29.98S
TOLEDO METCALF CLOUDY    49  45  86 E5        29.99S
LIMA           CLOUDY    49  45  86 NE7       29.97S

$$
AND FOR LAKE MICHIGAN COASTAL AND OPEN LAKE BUOY OBSERVATIONS

STATION/POSITION TEMP    WIND        PRES    VSBY  WAVE
                 AIR SEA DIR/SP/G                  HT/PER
                 (F)     (DEG/KT/KT) (MB)    (MI)  (FT/S)
CALUMET HARBOR    46                 1016.1F
MICHIGAN CITY     46     360/  4/  5   N/A
BURNS HARBOR      47      40/  4/  6 1016.9S
SAINT JOSEPH      45     360/  2/  4 1016.3F
SOUTH LAKE BUOY   43 41  350/  4/  6 1016.4R         1
4 MI NW BRIDGMAN  47 48                N/A           1/ 3

$$
&&




USA.gov is the U.S. government's official web portal to all federal, state and local government web resources and services.